Temperature
1 1 2 2 2 1 1 1 1 2 2 2 1 1 1 2 2 1 1 1 1 1 1 2 2 3 3 3 4 4 4 5 5 5 5 5 5 5 5 5 5 6 6 6
1 1 1 1 2 1 2 1 1 1 2 2 2 2 1 1 1 1 1 1 1 1 1 1 2 2 2 3 3 3 4 4 4 4 4 5 5 5 5 5 5 5 5 5
0 0 1 1 1 1 1 0 1 1 2 0 0 0 1 1 0 0 0 0 0 0 0 1 1 1 2 2 2 3 3 3 4 4 4 4 4 4 4 4 4 4 4 4
-1 0 2 2 1 0 0 -0 -0 0 0 0 0 1 1 1 1 0 0 -0 -0 -0 -0 0 0 1 1 1 2 2 3 3 3 3 3 4 4 3 4 4 4 4 4 4
-2 -1 0 1 1 -0 0 -0 -0 -1 -0 0 0 0 0 1 0 0 -0 -0 -0 -1 -1 -0 -0 0 1 1 1 2 2 2 2 3 3 3 3 3 3 3 3 3 3 3
-2 -0 1 2 0 0 0 0 -0 -1 -1 -1 -1 -1 -1 1 -0 -0 -0 -1 -1 -1 -1 -1 -0 -0 0 1 1 1 1 2 2 2 2 2 2 2 2 2 2 2 2 2
-2 -2 -0 -0 -1 0 1 1 0 -0 -0 -1 -2 -1 0 -0 -0 -1 -1 -1 -1 -1 -1 -1 -1 -0 -0 0 0 1 1 1 1 1 1 1 1 1 1 1 1 1 1 1
-3 -2 0 -1 -1 -1 -0 0 0 0 0 -1 -0 -0 -1 -1 -1 -1 -1 -1 -1 -1 -1 -1 -1 -1 -1 -1 -0 -0 0 0 0 0 0 0 0 1 1 1 1 1 0 0
-2 -0 -0 -0 0 1 1 0 0 0 -0 -1 -1 -1 -1 -1 -1 -1 -2 -2 -2 -2 -2 -1 -1 -1 -1 -1 -1 -1 -1 -1 -1 -0 -0 -0 -0 -0 -0 -0 -0 -0 -0 -0
-4 -3 -1 -0 1 1 1 0 0 -0 -1 -1 -1 -1 -2 -2 -2 -2 -2 -2 -2 -2 -2 -2 -2 -2 -2 -2 -2 -2 -2 -1 -1 -1 -1 -1 -1 -1 -1 -1 -1 -1 -1 -1
-4 -3 -2 -0 1 1 0 -0 -0 -1 -1 -1 -2 -2 -2 -2 -2 -2 -2 -3 -3 -3 -3 -3 -2 -2 -2 -2 -2 -2 -2 -2 -2 -2 -2 -2 -2 -2 -2 -2 -2 -2 -2 -2
-2 -1 -2 0 1 1 0 -0 -1 -1 -2 -2 -2 -2 -2 -2 -3 -3 -3 -3 -3 -3 -3 -3 -3 -3 -3 -3 -3 -3 -3 -3 -3 -3 -2 -2 -2 -2 -2 -2 -2 -2 -2 -2
1 1 1 1 0 0 -0 -1 -1 -2 -2 -2 -2 -3 -3 -3 -3 -3 -3 -3 -3 -3 -3 -3 -3 -3 -3 -3 -3 -3 -3 -3 -3 -3 -3 -3 -3 -3 -3 -3 -3 -3 -3 -3
0 0 -0 -0 -0 -1 -1 -1 -2 -2 -2 -3 -3 -3 -3 -3 -3 -3 -3 -3 -3 -3 -3 -3 -3 -3 -3 -3 -4 -4 -4 -4 -4 -4 -3 -3 -3 -3 -3 -3 -3 -4 -4 -4
0 -0 -1 -1 -1 -1 -2 -2 -2 -2 -3 -3 -3 -3 -3 -3 -4 -4 -4 -4 -4 -4 -4 -4 -4 -4 -4 -4 -4 -4 -4 -4 -4 -4 -4 -4 -4 -4 -4 -4 -4 -4 -4 -4
-1 -1 -1 -1 -2 -2 -2 -2 -2 -2 -3 -3 -3 -3 -4 -4 -4 -4 -4 -4 -4 -4 -4 -4 -4 -4 -4 -4 -4 -4 -4 -4 -5 -4 -4 -4 -4 -4 -4 -4 -4 -4 -4 -5
-2 -2 -2 -2 -2 -2 -2 -2 -3 -3 -3 -3 -3 -3 -4 -4 -4 -4 -4 -4 -4 -4 -4 -4 -4 -4 -4 -4 -5 -5 -5 -5 -5 -5 -5 -5 -5 -5 -5 -5 -5 -5 -5 -5
-1 -1 -2 -2 -2 -2 -2 -3 -3 -3 -3 -3 -3 -4 -4 -4 -4 -4 -4 -4 -4 -4 -4 -5 -5 -5 -5 -5 -5 -5 -5 -5 -5 -5 -5 -5 -6 -6 -6 -6 -6 -6 -6 -6
-2 -2 -2 -2 -2 -3 -3 -3 -3 -3 -3 -3 -4 -4 -4 -4 -4 -4 -4 -4 -4 -5 -5 -5 -5 -5 -5 -5 -5 -5 -6 -6 -6 -6 -6 -6 -6 -6 -6 -6 -6 -6 -6 -6
-2 -2 -2 -3 -3 -3 -3 -3 -3 -3 -4 -4 -4 -4 -4 -4 -4 -4 -5 -5 -5 -5 -5 -5 -5 -5 -5 -5 -6 -6 -6 -6 -6 -6 -6 -6 -6 -6 -6 -6 -6 -6 -6 -6
-2 -2 -3 -3 -3 -3 -3 -4 -4 -4 -4 -4 -4 -4 -4 -4 -5 -5 -5 -5 -5 -5 -5 -5 -5 -5 -5 -6 -6 -6 -6 -6 -6 -6 -6 -6 -6 -6 -6 -6 -7 -7 -7 -7
-2 -3 -3 -3 -3 -4 -4 -4 -4 -4 -4 -4 -5 -5 -5 -5 -5 -5 -5 -5 -5 -5 -5 -6 -6 -6 -6 -6 -6 -6 -6 -6 -6 -6 -6 -6 -6 -6 -7 -7 -7 -7 -7 -7
-2 -3 -3 -3 -4 -4 -4 -4 -4 -5 -5 -5 -5 -5 -5 -5 -5 -5 -5 -6 -6 -6 -6 -6 -6 -6 -6 -6 -6 -6 -6 -6 -7 -7 -7 -7 -7 -7 -7 -7 -7 -7 -8 -8
-3 -3 -3 -4 -4 -4 -5 -5 -5 -5 -5 -5 -5 -5 -5 -5 -6 -6 -6 -6 -6 -6 -6 -6 -6 -6 -6 -6 -6 -7 -7 -7 -7 -7 -7 -7 -7 -7 -7 -8 -8 -8 -8 -8
-3 -3 -4 -4 -4 -5 -5 -5 -5 -5 -5 -5 -5 -6 -6 -6 -6 -6 -6 -6 -6 -6 -6 -6 -6 -6 -7 -7 -7 -7 -7 -7 -7 -7 -7 -8 -8 -8 -8 -8 -8 -8 -8 -8
-3 -4 -4 -4 -4 -5 -5 -5 -5 -5 -5 -5 -5 -6 -6 -6 -6 -6 -6 -6 -6 -6 -6 -6 -7 -7 -7 -7 -7 -7 -7 -8 -8 -8 -8 -8 -8 -8 -8 -8 -8 -8 -9 -9
-3 -4 -4 -4 -5 -5 -5 -5 -5 -5 -5 -5 -5 -6 -6 -6 -6 -6 -6 -6 -6 -6 -7 -7 -7 -7 -7 -7 -7 -8 -8 -8 -8 -8 -8 -8 -8 -8 -9 -9 -9 -9 -9 -9
Wind_Speed
4 5 4 6 7 7 8 8 8 8 8 11 8 6 6 5 5 6 7 6 7 7 8 8 8 7 6 6 6 5 4 4 4 4 3 3 2 2 2 3 4 4 4 4
3 4 4 7 9 9 9 8 8 9 11 8 5 3 4 5 5 6 6 7 7 8 8 8 8 8 7 7 7 5 4 4 4 3 2 2 1 1 1 2 2 3 4 4
2 4 4 7 8 8 5 5 6 9 9 4 5 6 6 5 5 5 6 7 8 8 8 8 8 8 8 7 7 5 4 3 3 2 1 1 1 1 1 2 2 3 3 4
1 2 5 6 2 4 5 5 6 6 5 4 6 7 5 4 4 6 6 7 7 7 7 7 7 7 7 7 6 4 4 4 2 1 1 0 1 1 1 1 2 2 3 3
1 2 8 7 3 4 5 6 5 7 7 5 4 4 4 3 3 5 6 7 7 7 6 7 7 7 6 6 5 4 4 4 3 1 1 1 1 1 1 1 1 1 2 3
3 3 6 5 2 2 2 5 4 5 6 3 1 3 6 4 5 6 6 5 6 6 6 6 7 6 5 5 5 4 5 4 3 1 1 1 1 1 1 2 2 2 2 2
5 5 8 5 2 3 3 6 3 4 4 3 4 6 6 5 5 5 5 6 5 5 5 6 6 5 5 5 5 5 4 3 3 2 2 2 2 2 2 3 3 3 3 3
5 5 8 3 5 6 7 3 2 3 4 4 6 6 5 5 5 5 6 6 5 5 5 5 5 5 5 6 6 5 3 3 3 3 3 3 3 3 3 3 4 4 4 3
9 9 4 5 6 5 3 3 4 4 4 4 5 6 6 5 5 5 5 5 5 4 5 5 5 4 4 6 6 4 3 3 3 4 3 2 2 3 3 3 3 3 3 3
5 8 6 6 6 5 4 5 5 4 4 4 5 6 6 6 5 5 5 4 4 4 4 5 5 4 4 5 5 4 3 3 3 3 3 3 2 2 2 2 2 2 2 2
7 7 5 6 8 8 6 5 5 4 4 5 6 6 5 5 6 5 5 4 3 3 4 5 5 4 4 4 4 3 3 3 3 2 2 3 3 2 2 1 2 2 2 2
9 8 6 7 6 6 6 6 6 6 6 5 5 6 5 5 5 5 5 4 3 4 4 5 4 4 4 4 3 2 2 2 2 2 2 2 3 3 5 3 4 4 4 3
8 6 6 6 5 5 5 6 6 6 7 6 5 5 5 5 4 4 4 4 4 4 4 4 4 4 4 3 2 1 1 1 1 1 1 1 2 2 2 4 5 5 4 4
6 4 5 6 6 6 5 5 5 5 5 5 5 4 4 4 4 4 4 4 4 4 4 3 3 4 4 3 2 2 1 1 1 1 1 1 1 1 1 1 2 2 3 4
7 8 8 6 5 5 4 3 4 5 5 4 4 3 4 4 4 5 4 4 3 3 3 3 3 4 3 2 1 1 1 1 1 1 1 1 1 1 1 1 1 1 2 2
5 5 5 6 7 6 5 5 6 6 5 5 4 4 4 5 5 4 4 2 2 3 3 3 4 4 2 1 1 1 0 1 1 1 1 1 1 1 1 1 1 1 1 1
5 6 7 7 8 7 7 7 7 7 6 5 5 5 4 3 3 3 3 3 3 3 3 3 4 3 1 1 1 0 0 0 1 1 1 1 1 1 1 1 1 1 0 1
9 8 7 7 7 7 7 6 6 6 6 5 4 3 3 3 4 4 4 3 2 3 3 3 3 2 1 0 1 1 1 1 0 1 1 1 1 1 1 1 1 1 1 1
5 6 6 6 6 6 6 6 6 5 4 4 4 4 4 4 4 3 2 1 2 3 4 3 2 0 0 1 1 1 1 1 1 1 1 1 1 1 1 1 1 1 1 1
4 4 4 4 4 4 5 5 4 4 4 4 4 3 3 3 3 2 2 2 3 3 2 1 0 0 1 1 1 1 1 1 1 1 1 1 1 1 1 1 1 1 1 1
4 4 4 4 4 4 5 5 4 4 4 4 4 4 4 3 2 2 2 2 3 2 1 1 1 1 1 1 2 1 1 1 1 1 1 1 1 1 1 1 1 1 1 1
4 4 4 4 4 4 3 4 4 4 3 3 3 3 3 2 2 1 2 2 2 1 0 1 1 1 1 2 2 1 1 1 1 1 1 1 1 1 1 1 1 1 1 1
4 4 4 4 4 3 2 2 3 4 4 4 4 4 3 3 2 2 2 2 1 1 0 1 1 1 3 2 2 1 1 1 1 1 1 1 1 1 1 1 1 1 1 1
4 4 3 2 2 2 2 3 2 2 3 3 3 3 3 2 2 2 2 2 1 1 1 1 1 2 3 2 2 2 1 1 1 1 0 0 0 1 1 1 1 1 1 1
4 3 3 3 3 3 3 2 2 1 1 1 2 2 2 2 2 2 1 1 2 2 1 1 1 2 2 2 2 1 1 1 1 1 1 0 0 0 0 0 0 0 1 1
3 3 3 4 3 3 3 3 2 2 2 2 2 2 2 1 2 1 1 1 1 1 1 1 1 1 1 1 1 1 1 0 0 0 0 0 0 0 0 1 1 1 1 1
2 2 2 2 2 3 3 3 3 3 3 3 2 2 2 2 2 2 2 1 1 1 1 1 1 0 1 1 1 1 1 0 0 0 0 0 0 1 1 1 1 1 1 2
Wind_Direction
266 278 261 249 244 225 216 211 219 245 253 269 269 273 282 292 304 310 315 325 326 323 321 323 327 324 318 316 312 312 308 297 288 267 255 248 226 215 208 189 182 179 178 180
298 293 275 275 259 237 235 232 236 257 270 268 274 276 279 287 297 301 307 311 314 316 318 320 320 321 322 319 314 316 308 296 292 267 240 212 217 205 183 176 166 162 173 182
268 313 331 276 245 217 213 214 206 233 251 288 292 283 274 275 281 284 292 301 304 306 306 307 310 314 317 313 316 320 313 299 295 283 237 208 220 172 160 152 149 159 174 181
264 9 247 246 241 196 204 240 226 242 260 261 267 278 267 253 264 283 293 299 299 300 304 308 311 314 315 317 322 327 328 322 320 321 325 335 134 147 153 137 148 153 158 164
160 254 278 283 245 187 197 262 234 234 262 277 293 313 289 261 272 276 282 289 291 293 298 305 311 314 320 325 331 339 334 330 332 342 354 63 102 127 113 117 117 132 142 131
167 211 246 257 250 189 123 276 241 218 244 264 336 301 283 301 298 295 298 299 303 307 312 313 315 322 325 326 335 335 327 321 328 354 46 65 74 64 60 94 99 91 95 111
201 231 262 255 220 127 177 254 259 218 227 219 225 242 277 297 294 292 298 303 310 315 315 312 320 329 332 336 330 326 326 337 357 30 56 61 59 63 80 86 89 85 82 81
178 212 251 197 143 185 225 261 249 241 233 233 251 271 281 287 290 297 303 306 310 312 313 317 327 336 337 332 330 337 351 10 19 32 42 51 70 68 75 89 94 92 88 78
198 217 247 189 200 222 208 233 242 242 249 241 255 267 276 284 288 290 291 297 304 306 312 321 328 337 330 326 336 352 8 21 29 35 42 49 76 84 78 85 97 100 103 98
246 257 251 241 243 249 234 234 245 242 247 239 248 260 272 281 287 291 290 291 299 307 312 316 322 328 324 330 343 8 16 15 30 45 41 43 50 71 90 94 99 102 106 105
251 269 285 254 233 236 235 237 251 259 254 243 244 256 259 269 276 280 284 286 292 293 294 301 314 319 328 340 352 10 18 19 29 40 50 47 42 45 64 71 108 123 120 118
235 230 219 251 239 224 225 237 243 253 265 258 241 250 258 263 269 274 280 287 295 295 296 302 311 315 327 340 351 9 14 17 31 42 46 57 61 47 38 50 61 69 81 95
232 235 230 250 251 225 224 240 244 244 249 258 255 248 252 262 269 276 283 288 286 283 286 293 308 315 321 331 347 4 352 351 30 49 53 55 63 75 59 43 50 57 66 75
228 221 249 242 240 237 239 245 246 249 252 250 252 256 255 262 271 275 276 276 280 284 288 292 303 308 314 327 343 352 359 8 25 39 50 58 62 67 84 87 68 50 52 64
225 218 229 242 239 242 238 236 246 256 260 262 254 254 254 257 263 266 271 275 283 292 294 299 302 303 314 329 350 355 3 15 40 61 59 60 66 76 84 88 94 84 61 54
232 226 223 230 238 239 233 230 237 248 250 250 253 254 250 251 259 266 269 264 266 275 280 287 288 294 308 307 322 350 6 34 52 82 89 79 77 82 92 101 101 99 97 75
207 231 230 236 239 241 236 233 233 239 242 243 247 252 254 260 269 273 273 267 258 261 268 275 283 298 301 253 199 197 114 72 62 77 110 129 125 120 118 115 122 124 120 126
220 226 225 226 234 239 241 238 235 232 233 238 242 240 239 243 253 261 267 277 287 296 292 284 292 311 303 238 177 171 152 140 134 143 136 139 130 131 132 127 127 122 81 59
232 231 232 231 228 225 229 232 232 229 229 222 220 229 238 243 250 259 264 262 265 281 294 293 304 341 210 201 150 160 151 146 142 139 142 150 125 123 137 154 160 144 126 105
242 238 236 238 230 222 228 230 226 228 228 216 217 227 243 253 252 250 240 241 249 259 271 268 211 183 197 198 152 146 154 157 161 164 151 152 154 154 160 156 147 149 147 138
244 238 231 229 235 234 227 220 215 222 224 211 211 222 235 248 239 227 224 259 287 287 265 229 167 186 189 165 144 135 148 154 166 182 179 175 174 173 169 155 150 153 150 142
237 230 229 225 227 242 236 218 212 214 213 212 216 216 220 231 225 226 232 243 268 273 155 205 194 179 154 139 134 139 151 157 171 192 200 200 197 196 175 150 150 155 158 162
235 230 225 223 224 231 236 221 211 206 208 211 212 211 214 220 211 203 246 259 242 223 162 207 200 164 142 131 133 140 138 138 149 165 184 184 176 169 163 165 168 160 162 178
230 227 227 219 190 192 222 234 222 213 213 219 221 217 210 213 229 227 230 229 217 181 172 214 172 148 135 120 128 129 132 147 164 169 171 157 147 149 163 176 190 194 190 209
218 212 200 186 199 218 223 213 202 208 207 224 235 228 214 204 211 220 202 199 193 156 146 193 152 140 129 126 135 143 160 181 170 159 165 163 163 166 190 197 199 205 221 235
204 206 211 215 215 210 198 190 200 209 203 213 233 227 213 197 182 170 166 169 170 148 130 126 145 151 134 133 129 132 144 182 202 177 175 196 219 220 237 244 245 238 236 245
199 196 193 215 225 206 195 194 200 206 203 201 214 215 193 179 169 163 156 150 142 135 125 120 122 127 122 128 124 120 129 135 133 146 166 194 223 242 244 241 243 246 251 258
Height
1516 1513 1513 1512 1510 1511 1512 1512 1512 1503 1500 1492 1491 1490 1488 1486 1484 1482 1479 1476 1473 1470 1467 1464 1461 1459 1457 1455 1453 1452 1451 1450 1450 1450 1450 1450 1450 1450 1451 1451 1452 1453 1455 1457
1516 1512 1511 1509 1505 1506 1505 1505 1504 1501 1497 1489 1488 1487 1486 1484 1482 1479 1477 1474 1471 1468 1465 1462 1459 1456 1453 1451 1450 1448 1447 1446 1446 1446 1445 1445 1446 1446 1447 1447 1448 1449 1451 1453
1518 1515 1511 1507 1499 1500 1499 1499 1498 1497 1492 1488 1487 1485 1483 1482 1480 1477 1475 1473 1469 1466 1463 1460 1458 1454 1451 1449 1446 1444 1444 1443 1442 1442 1441 1441 1442 1442 1443 1443 1444 1445 1447 1449
1521 1518 1513 1497 1494 1493 1495 1494 1493 1490 1488 1487 1485 1483 1481 1480 1478 1475 1473 1470 1467 1464 1461 1458 1455 1452 1449 1446 1444 1442 1441 1439 1439 1438 1438 1438 1439 1439 1440 1440 1441 1442 1444 1446
1523 1520 1508 1495 1492 1492 1493 1492 1488 1487 1485 1484 1483 1481 1478 1477 1476 1474 1471 1469 1466 1462 1459 1456 1453 1450 1446 1443 1441 1439 1438 1437 1436 1435 1435 1435 1436 1436 1437 1438 1439 1440 1441 1443
1523 1516 1506 1491 1489 1488 1491 1491 1484 1483 1483 1482 1482 1482 1476 1474 1473 1470 1468 1466 1463 1460 1457 1453 1450 1447 1444 1441 1438 1437 1436 1435 1434 1433 1433 1433 1433 1434 1435 1436 1437 1439 1440 1441
1520 1516 1501 1489 1488 1488 1494 1486 1481 1480 1479 1480 1479 1478 1475 1472 1470 1468 1466 1463 1460 1457 1454 1451 1448 1445 1442 1439 1437 1436 1435 1434 1433 1432 1432 1432 1432 1433 1434 1435 1436 1437 1438 1439
1517 1514 1498 1485 1487 1488 1484 1480 1479 1477 1477 1476 1475 1473 1472 1470 1468 1465 1463 1460 1457 1454 1452 1449 1447 1444 1441 1438 1436 1435 1434 1433 1432 1432 1431 1432 1432 1432 1433 1433 1434 1436 1437 1438
1498 1490 1481 1480 1478 1478 1478 1477 1476 1475 1474 1473 1471 1470 1468 1467 1465 1462 1460 1458 1455 1452 1450 1447 1445 1442 1439 1437 1436 1434 1433 1433 1432 1432 1432 1432 1431 1432 1432 1433 1434 1435 1436 1437
1490 1481 1477 1477 1476 1476 1475 1474 1473 1472 1471 1470 1468 1467 1465 1464 1462 1460 1457 1455 1453 1450 1447 1445 1443 1441 1439 1437 1435 1434 1433 1432 1431 1431 1431 1431 1431 1432 1432 1433 1434 1434 1435 1436
1484 1477 1474 1472 1471 1471 1471 1470 1470 1469 1468 1467 1465 1464 1462 1460 1459 1457 1455 1452 1450 1448 1445 1443 1441 1439 1438 1436 1434 1433 1432 1431 1431 1431 1431 1431 1431 1432 1433 1433 1434 1435 1435 1436
1474 1469 1470 1467 1467 1468 1467 1466 1466 1465 1464 1463 1462 1460 1459 1457 1456 1454 1452 1450 1448 1445 1443 1441 1439 1438 1436 1435 1434 1432 1431 1431 1431 1431 1430 1431 1431 1432 1433 1434 1435 1435 1436 1437
1464 1464 1465 1464 1464 1464 1463 1463 1462 1461 1460 1459 1458 1457 1456 1454 1452 1451 1449 1447 1445 1444 1442 1440 1438 1436 1435 1434 1433 1432 1431 1431 1430 1430 1430 1430 1431 1431 1432 1434 1434 1435 1435 1436
1461 1462 1460 1460 1460 1460 1460 1459 1458 1457 1456 1455 1454 1453 1452 1451 1449 1448 1446 1444 1443 1441 1440 1438 1436 1435 1434 1433 1432 1431 1430 1430 1430 1430 1430 1430 1431 1431 1432 1432 1433 1434 1435 1436
1456 1456 1456 1455 1455 1456 1455 1455 1454 1453 1452 1451 1450 1449 1448 1447 1446 1445 1443 1442 1441 1439 1437 1436 1435 1434 1433 1432 1431 1430 1430 1429 1429 1429 1430 1430 1430 1431 1431 1432 1432 1433 1434 1435
1451 1451 1451 1451 1450 1450 1451 1450 1449 1448 1447 1447 1446 1445 1445 1444 1443 1442 1441 1439 1438 1436 1435 1434 1433 1432 1432 1431 1430 1429 1429 1429 1429 1429 1429 1429 1429 1430 1430 1430 1431 1432 1432 1433
1446 1445 1445 1445 1445 1445 1446 1445 1445 1444 1444 1443 1442 1442 1441 1441 1439 1438 1438 1437 1436 1435 1433 1432 1432 1431 1430 1429 1428 1428 1428 1428 1428 1428 1428 1428 1428 1428 1429 1429 1430 1430 1431 1432
1441 1441 1441 1441 1441 1441 1441 1441 1440 1440 1440 1439 1439 1438 1438 1437 1436 1435 1435 1434 1433 1432 1431 1431 1430 1429 1428 1428 1427 1427 1427 1427 1427 1427 1427 1427 1427 1427 1428 1428 1428 1429 1429 1430
1436 1437 1437 1437 1437 1436 1436 1436 1436 1436 1436 1436 1436 1435 1435 1434 1433 1433 1432 1431 1430 1429 1429 1429 1428 1428 1427 1427 1426 1426 1426 1426 1426 1426 1426 1426 1426 1426 1427 1427 1427 1428 1428 1428
1433 1433 1433 1432 1432 1432 1432 1432 1432 1432 1432 1432 1432 1432 1431 1431 1431 1430 1429 1428 1428 1427 1427 1427 1426 1426 1425 1425 1425 1425 1425 1425 1425 1425 1425 1425 1425 1425 1426 1426 1426 1426 1427 1427
1429 1429 1429 1428 1428 1428 1428 1428 1428 1428 1429 1429 1429 1428 1428 1428 1428 1427 1427 1426 1426 1426 1425 1425 1424 1424 1424 1424 1424 1424 1424 1424 1424 1424 1424 1424 1424 1424 1424 1425 1425 1425 1426 1426
1426 1425 1425 1425 1425 1425 1425 1425 1425 1425 1425 1425 1426 1426 1425 1425 1425 1425 1424 1424 1424 1423 1423 1423 1423 1423 1423 1423 1422 1422 1422 1422 1422 1423 1423 1423 1423 1423 1423 1424 1424 1424 1424 1424
1423 1422 1422 1422 1422 1422 1422 1422 1422 1422 1422 1423 1423 1423 1423 1422 1422 1422 1422 1422 1422 1422 1422 1421 1421 1421 1421 1421 1421 1421 1421 1421 1421 1422 1422 1422 1422 1422 1422 1423 1423 1423 1423 1422
1420 1419 1419 1419 1419 1419 1419 1419 1420 1420 1420 1420 1421 1421 1421 1421 1420 1420 1420 1420 1420 1420 1420 1420 1420 1420 1420 1420 1420 1420 1420 1420 1420 1421 1421 1421 1421 1421 1421 1421 1421 1421 1421 1421
1416 1416 1416 1416 1416 1416 1417 1417 1417 1418 1418 1418 1419 1419 1419 1419 1419 1419 1419 1419 1419 1419 1419 1419 1419 1419 1419 1419 1419 1419 1419 1419 1419 1420 1420 1420 1420 1420 1420 1420 1420 1420 1420 1419
1413 1413 1414 1414 1414 1414 1414 1415 1415 1415 1416 1416 1416 1417 1417 1417 1417 1417 1417 1417 1417 1417 1418 1418 1418 1418 1418 1418 1418 1418 1418 1418 1418 1419 1419 1419 1419 1419 1419 1418 1418 1418 1418 1418
1410 1410 1411 1411 1411 1411 1412 1412 1413 1413 1414 1414 1414 1415 1415 1415 1415 1415 1415 1415 1416 1416 1416 1417 1417 1417 1417 1417 1417 1417 1417 1417 1417 1417 1417 1417 1417 1417 1417 1417 1417 1416 1416 1416